Flag for Canada Weather past 2 weeks in Rae-Edzo, Northwest Territories, Canada

Now
28 °F

Chilly.


Feels Like: 22 °F
Forecast: 6 / 23 °F
Wind: 6 mph from Northwest

Location: Lac La Martre

Current Time: Mar 28, 2015 at 3:30:00 AM

Latest Report: Mar 28, 2015 at 3:00 AM


Visibility: N/A

Pressure: 29.52 "Hg

Humidity: 75%

Dew point: 21 °F

Location of Rae-EdzoLocation

Historic Weather in Rae-Edzo — Graph

°F

Rae-Edzo temperature yesterday

Maximum temperature yesterday: 41 °F (at 6:00 PM)
Minimum temperature yesterday: 11 °F (at 8:00 AM)
Average temperature yesterday: 29 °F

Past Weeks' High & Low Weather Summary

 TemperatureHumidityPressure
High41 °F (Mar 27, 6:00 PM)94% (Mar 26, 9:00 AM)30.53 "Hg (Mar 26, 9:00 AM)
Low-28 °F (Mar 17, 1:00 AM)31% (Mar 21, 1:00 PM)29.26 "Hg (Mar 14, 1:00 AM)
Average5 °F62%30.13 "Hg
* Reported Mar 13 2:00 AM — Mar 28 2:00 AM, Rae-Edzo, Weather by CustomWeather, © 2015

Note: Actual official high and low records may vary slightly from our data, if they occured in-between our weather recording intervals... More about our weather records

Advertising

Rae-Edzo weather history for previous 24 hours

 ConditionsComfort  
Time TempWeatherWind HumidityBarometerVisibility
2:00 AM
Sat, Mar 28
29 °FChilly.6 mph74%29.52 "HgN/A
1:00 AM29 °FChilly.5 mph72%29.51 "HgN/A
12:00 AM29 °FChilly.6 mph72%29.51 "HgN/A
11:00 PM
Fri, Mar 27
30 °FChilly.5 mph69%29.51 "HgN/A
10:00 PM30 °FChilly.3 mph65%29.51 "HgN/A
9:00 PM31 °FChilly.6 mph57%29.52 "HgN/A
8:00 PM36 °FChilly.5 mph49%29.52 "HgN/A
7:00 PM38 °FChilly.5 mph47%29.52 "HgN/A
6:00 PM41 °FQuite cool.5 mph45%29.51 "HgN/A
5:00 PM39 °FChilly.5 mph50%29.50 "HgN/A
4:00 PM37 °FChilly.7 mph55%29.51 "HgN/A
3:00 PM36 °FChilly.8 mph61%29.52 "HgN/A
2:00 PM36 °FChilly.8 mph58%29.51 "HgN/A
1:00 PM35 °FChilly.9 mph62%29.51 "HgN/A
12:00 PM36 °FChilly.7 mph59%29.52 "HgN/A
11:00 AM32 °FChilly.5 mph67%29.52 "HgN/A
10:00 AM30 °FChilly.3 mph69%29.53 "HgN/A
9:00 AM20 °FCold.1 mph84%29.56 "HgN/A
8:00 AM11 °FCold.2 mph90%29.58 "HgN/A
7:00 AM15 °FCold.1 mph88%29.59 "HgN/A
6:00 AM22 °FCold.5 mph83%29.61 "HgN/A
5:00 AM23 °FCold.7 mph80%29.63 "HgN/A
4:00 AM25 °FChilly.7 mph77%29.66 "HgN/A
3:00 AM25 °FCold.8 mph79%29.68 "HgN/A
Weather by CustomWeather, © 2015

See weather overviewHow to use our weather pages